When you browse on this site, cookies collect data to enhance your experience and personalize the content and advertising you see.
Visit our Privacy Policy to learn more. By continuing to use the site, you agree to this use of cookies and data.

Hourly Weather Wiktoria

Today, 5 July, Sunday

Time Temperature Precipitation Wind Pressure Humidity
00:00 +7°C° 0 mm 3 mps 756 mmHg 94%
01:00 +7°C° 0 mm 3 mps 756 mmHg 95%
02:00 +7°C° 0 mm 3 mps 756 mmHg 95%
03:00 +7°C° 0 mm 3 mps 756 mmHg 94%
04:00 +6°C° 0 mm 4 mps 756 mmHg 94%
05:00 +7°C° 0 mm 3 mps 756 mmHg 94%
06:00 +5°C° 0 mm 3 mps 757 mmHg 95%
07:00 +5°C° 0 mm 3 mps 757 mmHg 95%
08:00 +6°C° 0 mm 4 mps 757 mmHg 91%
09:00 +7°C° 0 mm 4 mps 757 mmHg 87%
10:00 +9°C° 0 mm 5 mps 758 mmHg 82%
11:00 +10°C° 0 mm 5 mps 757 mmHg 77%
12:00 +12°C° 0 mm 5 mps 757 mmHg 73%
13:00 +13°C° 0 mm 5 mps 757 mmHg 68%
14:00 +12°C° 0 mm 5 mps 757 mmHg 69%
15:00 +12°C° 0 mm 5 mps 757 mmHg 70%
16:00 +12°C° 0 mm 4 mps 757 mmHg 70%
17:00 +10°C° 0 mm 4 mps 757 mmHg 76%
18:00 +8°C° 0 mm 4 mps 757 mmHg 82%
19:00 +6°C° 0 mm 4 mps 758 mmHg 88%
20:00 +6°C° 0 mm 4 mps 758 mmHg 90%
21:00 +6°C° 0 mm 4 mps 758 mmHg 92%
22:00 +5°C° 0 mm 4 mps 759 mmHg 94%
23:00 +5°C° 0 mm 4 mps 759 mmHg 94%

Tomorrow, 6 July, Monday

Time Temperature Precipitation Wind Pressure Humidity
00:00 +5°C° 0 mm 4 mps 759 mmHg 94%
01:00 +5°C° 0 mm 4 mps 759 mmHg 94%
02:00 +5°C° 0 mm 3 mps 759 mmHg 94%
03:00 +4°C° 0 mm 3 mps 759 mmHg 94%
04:00 +4°C° 0 mm 3 mps 759 mmHg 94%
05:00 +4°C° 0 mm 3 mps 759 mmHg 94%
06:00 +3°C° 0 mm 3 mps 760 mmHg 94%
07:00 +3°C° 0 mm 3 mps 760 mmHg 93%
08:00 +5°C° 0 mm 3 mps 760 mmHg 88%
09:00 +8°C° 0 mm 3 mps 761 mmHg 83%
10:00 +9°C° 0 mm 3 mps 761 mmHg 77%
11:00 +10°C° 0 mm 3 mps 761 mmHg 73%
12:00 +12°C° 0 mm 4 mps 760 mmHg 68%
13:00 +13°C° 0 mm 4 mps 760 mmHg 64%
14:00 +13°C° 0 mm 4 mps 760 mmHg 66%
15:00 +13°C° 0 mm 4 mps 759 mmHg 68%
16:00 +12°C° 0 mm 4 mps 759 mmHg 71%
17:00 +11°C° 0 mm 4 mps 760 mmHg 76%
18:00 +8°C° 0 mm 4 mps 760 mmHg 81%
19:00 +7°C° 0 mm 4 mps 761 mmHg 86%
20:00 +6°C° 0 mm 4 mps 761 mmHg 88%
21:00 +7°C° 0 mm 3 mps 761 mmHg 90%
22:00 +5°C° 0 mm 3 mps 761 mmHg 92%
23:00 +5°C° 0 mm 3 mps 761 mmHg 93%

Day after tomorrow, 7 July, Tuesday

Time Temperature Precipitation Wind Pressure Humidity
00:00 +4°C° 0 mm 3 mps 761 mmHg 93%
01:00 +4°C° 0 mm 3 mps 761 mmHg 93%
02:00 +4°C° 0 mm 3 mps 761 mmHg 93%
03:00 +3°C° 0 mm 3 mps 760 mmHg 93%
04:00 +4°C° 0 mm 2 mps 760 mmHg 93%
05:00 +4°C° 0 mm 2 mps 761 mmHg 92%
06:00 +4°C° 0 mm 2 mps 761 mmHg 92%
07:00 +4°C° 0 mm 2 mps 761 mmHg 92%
08:00 +6°C° 0 mm 1 mps 761 mmHg 86%
09:00 +8°C° 0 mm 1 mps 761 mmHg 80%
10:00 +10°C° 0 mm 1 mps 761 mmHg 75%
11:00 +11°C° 0 mm 1 mps 761 mmHg 71%
12:00 +13°C° 0 mm 1 mps 761 mmHg 67%
13:00 +14°C° 0 mm 1 mps 760 mmHg 63%
14:00 +14°C° 0 mm 1 mps 760 mmHg 66%
15:00 +13°C° 0 mm 0 mps 760 mmHg 68%
16:00 +13°C° 0 mm 0 mps 759 mmHg 71%
17:00 +12°C° 0 mm 1 mps 760 mmHg 76%
18:00 +10°C° 0 mm 1 mps 760 mmHg 80%
19:00 +9°C° 0 mm 1 mps 760 mmHg 85%
20:00 +8°C° 0 mm 1 mps 760 mmHg 86%
21:00 +8°C° 0 mm 1 mps 760 mmHg 88%
22:00 +7°C° 0 mm 1 mps 760 mmHg 89%
23:00 +7°C° 0 mm 1 mps 760 mmHg 89%

8 July, Wednesday

Time Temperature Precipitation Wind Pressure Humidity
00:00 +7°C° 0 mm 1 mps 760 mmHg 90%
01:00 +7°C° 0 mm 1 mps 760 mmHg 90%
02:00 +7°C° 0 mm 1 mps 760 mmHg 90%
03:00 +6°C° 0 mm 1 mps 760 mmHg 90%
04:00 +6°C° 0 mm 1 mps 760 mmHg 91%
05:00 +6°C° 0 mm 1 mps 760 mmHg 91%
06:00 +5°C° 0 mm 2 mps 760 mmHg 91%
07:00 +5°C° 0 mm 2 mps 760 mmHg 92%
08:00 +6°C° 0 mm 2 mps 760 mmHg 87%
09:00 +8°C° 0 mm 3 mps 760 mmHg 83%
10:00 +8°C° 0 mm 4 mps 760 mmHg 79%
11:00 +10°C° 0 mm 4 mps 760 mmHg 77%
12:00 +12°C° 0 mm 4 mps 759 mmHg 74%
13:00 +13°C° 0 mm 4 mps 759 mmHg 72%
14:00 +13°C° 0 mm 3 mps 758 mmHg 74%
15:00 +13°C° 0 mm 3 mps 758 mmHg 76%
16:00 +14°C° 0 mm 2 mps 758 mmHg 77%
17:00 +12°C° 0 mm 2 mps 758 mmHg 82%
18:00 +10°C° 0 mm 2 mps 758 mmHg 86%
19:00 +8°C° 0 mm 2 mps 758 mmHg 91%
20:00 +8°C° 0 mm 2 mps 758 mmHg 91%
21:00 +7°C° 0 mm 2 mps 759 mmHg 92%
22:00 +7°C° 0 mm 2 mps 759 mmHg 93%
23:00 +7°C° 0 mm 2 mps 759 mmHg 93%

9 July, Thursday

Time Temperature Precipitation Wind Pressure Humidity
00:00 +5°C° 0 mm 3 mps 758 mmHg 94%
01:00 +5°C° 0 mm 3 mps 758 mmHg 94%
02:00 +5°C° 0 mm 3 mps 758 mmHg 94%
03:00 +5°C° 0 mm 3 mps 758 mmHg 95%
04:00 +4°C° 0 mm 3 mps 758 mmHg 95%
05:00 +5°C° 0 mm 2 mps 758 mmHg 94%
06:00 +6°C° 0 mm 2 mps 758 mmHg 93%
07:00 +6°C° 0 mm 2 mps 758 mmHg 93%
08:00 +7°C° 0 mm 3 mps 758 mmHg 91%
09:00 +8°C° 0 mm 3 mps 758 mmHg 89%
10:00 +9°C° 0 mm 3 mps 758 mmHg 87%
11:00 +10°C° 0 mm 3 mps 758 mmHg 85%
12:00 +11°C° 0 mm 3 mps 757 mmHg 82%
13:00 +12°C° 0 mm 3 mps 757 mmHg 80%
14:00 +12°C° 0.1 mm 3 mps 757 mmHg 79%
15:00 +12°C° 0.1 mm 3 mps 756 mmHg 78%
16:00 +12°C° 0.1 mm 3 mps 756 mmHg 78%
17:00 +11°C° 0 mm 3 mps 756 mmHg 82%
18:00 +10°C° 0 mm 3 mps 756 mmHg 86%
19:00 +8°C° 0 mm 3 mps 756 mmHg 90%
20:00 +8°C° 0 mm 3 mps 756 mmHg 90%
21:00 +7°C° 0 mm 3 mps 756 mmHg 91%
22:00 +7°C° 0 mm 3 mps 756 mmHg 91%
23:00 +7°C° 0 mm 3 mps 756 mmHg 91%

10 July, Friday

Time Temperature Precipitation Wind Pressure Humidity
00:00 +8°C° 0 mm 3 mps 756 mmHg 91%
01:00 +8°C° 0 mm 2 mps 756 mmHg 91%
02:00 +8°C° 0.1 mm 3 mps 755 mmHg 92%
03:00 +8°C° 0.1 mm 3 mps 755 mmHg 94%
04:00 +8°C° 0.1 mm 3 mps 755 mmHg 95%
05:00 +8°C° 0 mm 3 mps 755 mmHg 95%
06:00 +8°C° 0 mm 3 mps 755 mmHg 95%
07:00 +8°C° 0 mm 3 mps 755 mmHg 95%
08:00 +8°C° 0 mm 3 mps 755 mmHg 94%
09:00 +9°C° 0 mm 3 mps 755 mmHg 94%
10:00 +10°C° 0 mm 4 mps 755 mmHg 93%
11:00 +11°C° 0 mm 3 mps 754 mmHg 88%
12:00 +12°C° 0 mm 3 mps 753 mmHg 84%
13:00 +14°C° 0 mm 2 mps 753 mmHg 79%
14:00 +14°C° 0.1 mm 2 mps 752 mmHg 78%
15:00 +14°C° 0.1 mm 2 mps 752 mmHg 78%
16:00 +14°C° 0.1 mm 1 mps 751 mmHg 78%
17:00 +13°C° 0.1 mm 2 mps 751 mmHg 82%
18:00 +10°C° 0.1 mm 2 mps 751 mmHg 87%
19:00 +8°C° 0.1 mm 2 mps 751 mmHg 92%
20:00 +8°C° 0 mm 2 mps 751 mmHg 92%
21:00 +7°C° 0 mm 2 mps 751 mmHg 92%
22:00 +8°C° 0 mm 1 mps 751 mmHg 93%
23:00 +8°C° 0 mm 1 mps 751 mmHg 93%
Show more